CZ-4C R/B

Satellite information

Favourite Embed

Satellite Type and Status

ROCKET BODYIN ORBIT

Key statistics

Satellite CZ-4C R/B at a glance.

Uptime

1619

Days in orbit

Revolutions

≈ 13.7

Per day

Orbit

LEO

Low Earth Orbit

Inclination

63.4

Latest

Satellite identification and parameters

Extended collection of information and parameters for CZ-4C R/B.

Object identification

Identified? True

Debris? False

Object name: CZ-4C R/B

International designator: 2021-007F

Object number (NORAD): 47537

Object ID (CCSDS): 47537

Country: PEOPLES REPUBLIC OF CHINA (PRC)

Current information (Y/N): Y

RCS size: LARGE

Orbital parameters

Period: 105.264 minutes

Inclination: 63.4493 deg

SMA: 7384.918 km

Apoapsis: 1205.443 km

Periapsis: 808.122 km

RAAN: 154.1116 deg

Eccentricy: 0.0269008

Argument of periapsis: 4.1184 deg

Mean anomaly: 356.1979 deg

Mean motion: 13.67994291 rev/day

Mean motion (dot): 0.00000029 rev/day2

B* drag term: 0.0001137 1/REarth

Two-line elements (TLE)

Creation date: July 5, 2025, 5:45 p.m.

Reference frame: TEME

Reference center: EARTH

Epoch: July 5, 2025, 6:28 a.m. UTC

TLE line 0: 0 CZ-4C R/B

TLE line 1: 1 47537U 21007F 25186.27009650 .00000029 00000-0 11370-3 0 9993

TLE line 2: 2 47537 63.4493 154.1116 0269008 4.1184 356.1979 13.67994291221331

Live tracking on map

Real-time ground track for satellite CZ-4C R/B.

In-orbit conjunctions

A list of the most updated potential collisions computed for object CZ-4C R/B.

Target Orbit TCA Probability of collision Miss distance Type
COSMOS 2251 DEB LEO 2025-05-06 02:48:11 0.0001126672 338.0 (m) DEBRIS
NOAA 16 DEB SSO 2025-04-30 02:33:44 0.0001011898 575.0 (m) DEBRIS
THOR ABLESTAR DEB LEO 2024-07-27 08:46:25 0.0002972567 521.0 (m) DEBRIS

Associated space launch

CZ-4C R/B was lifted into orbit during the mission ‘Long March 4C | Yaogan-31-02’, on board a Long March 4C space rocket.

The launch took place on Jan. 29, 2021, 4:47 a.m. from Launch Area 4 (SLS-2 / 603).

For more information about the launch, click the button.

Launch to space Long March 4C | Yaogan-31-02
Long March 4C | Yaogan-31-02

Agency: N/A

Status: Launch Successful

Launch date: Jan. 29, 2021, 4:47 a.m. UTC

Rocket: Long March 4C

Launch pad: Launch Area 4 (SLS-2 / 603)

Location: Jiuquan Satellite Launch Center, People's Republic of China

...

Latest news about this satellite

News about space launch
Long March 4C lofts three Yaogan Weixing-31 satellites

China launched its second orbital mission in 2021, orbiting three new satellites from the Jiuquan Satellite Launch Center on Friday. The launch took place from Launch Pad 94 of the LC43 launch complex using the Long March-4C (Y31) rocket. The Yaogan Weix...

News about space launch
China launches military spy satellite trio into orbit

China launched three Yaogan military satellites Friday on a Long March 4C rocket, adding to a fleet of spacecraft independent analysts believe are designed to spy on naval forces.


Newsletter sign-up

Weekly statistics, charts and insights to help you stay on top of the space industry.